| time (UTC) | temp F | wind direction | speed MPH | gust MPH | rain 1hr in | rain 24hr in | rain mn in | humidity % | barometer mb |
| 20260503191044 | 64 | 230 | 0.0 | 0.0 | 0.00 | 0.00 | 0.00 | 100 | |
| 20260503190041 | 63 | 230 | 0.0 | 0.0 | 0.00 | 0.00 | 0.00 | 100 | |
| 20260503185041 | 62 | 230 | 0.0 | 0.0 | 0.00 | 0.00 | 0.00 | 100 | |
| 20260503184041 | 60 | 230 | 0.0 | 0.0 | 0.00 | 0.00 | 0.00 | 100 | |
| 20260503183041 | 60 | 230 | 0.0 | 2.0 | 0.00 | 0.00 | 0.00 | 100 | |
| 20260503182041 | 58 | 330 | 0.0 | 0.0 | 0.00 | 0.00 | 0.00 | 100 | |
| 20260503181042 | 58 | 330 | 0.0 | 0.0 | 0.00 | 0.00 | 0.00 | 100 | |
| 20260503180042 | 56 | 330 | 0.0 | 0.0 | 0.00 | 0.00 | 0.00 | 100 | |
| 20260503175042 | 54 | 330 | 0.0 | 0.0 | 0.00 | 0.00 | 0.00 | 100 | |
| 20260503174042 | 53 | 330 | 0.0 | 0.0 | 0.00 | 0.00 | 0.00 | 100 | |
| 20260503171054 | 49 | 330 | 0.0 | 0.0 | 0.00 | 0.00 | 0.00 | 100 | |
| 20260503072045 | 40 | 330 | 0.0 | 0.0 | 0.00 | 0.00 | 0.00 | 100 | |
| 20260503071043 | 40 | 330 | 0.0 | 0.0 | 0.00 | 0.00 | 0.00 | 100 | |
| 20260503055045 | 46 | 330 | 0.0 | 0.0 | 0.00 | 0.00 | 0.00 | 100 | |
| 20260503053043 | 46 | 330 | 0.0 | 0.0 | 0.00 | 0.00 | 0.00 | 100 | |
| 20260503052045 | 47 | 330 | 0.0 | 0.0 | 0.00 | 0.00 | 0.00 | 100 | |
| 20260503051045 | 48 | 330 | 0.0 | 0.0 | 0.00 | 0.00 | 0.00 | 100 | |
| 20260503050047 | 52 | 330 | 0.0 | 0.0 | 0.00 | 0.00 | 0.00 | 100 | |
| 20260503045045 | 53 | 330 | 0.0 | 0.0 | 0.00 | 0.00 | 0.00 | 100 | |
| 20260503044046 | 50 | 315 | 0.0 | 0.0 | 0.00 | 0.00 | 0.00 | 100 | |
| 20260503034045 | 57 | 333 | 0.0 | 2.0 | 0.00 | 0.00 | 0.00 | 100 | |
| 20260503033045 | 58 | 326 | 0.0 | 4.0 | 0.00 | 0.00 | 0.00 | 100 | |
| 20260503030046 | 59 | 194 | 0.0 | 0.0 | 0.00 | 0.00 | 0.00 | 100 | |
| 20260503025046 | 61 | 310 | 0.0 | 0.0 | 0.00 | 0.00 | 0.00 | 100 | |
| 20260503024046 | 61 | 310 | 0.0 | 0.0 | 0.00 | 0.00 | 0.00 | 100 | |
| 20260503014054 | 66 | 177 | 0.0 | 0.0 | 0.00 | 0.00 | 0.00 | 100 | |
| 20260503013051 | 67 | 177 | 0.0 | 7.0 | 0.00 | 0.00 | 0.00 | 100 | |
| 20260503012048 | 67 | 191 | 0.0 | 4.0 | 0.00 | 0.00 | 0.00 | 100 | |
| 20260503004043 | 69 | 171 | 0.0 | 0.0 | 0.00 | 0.00 | 0.00 | 100 | |
| 20260503002045 | 69 | 171 | 0.0 | 0.0 | 0.00 | 0.00 | 0.00 | 100 | |
| 20260503000051 | 69 | 237 | 0.0 | 4.0 | 0.00 | 0.00 | 0.00 | 100 | |
| 20260502233051 | 71 | 192 | 3.0 | 4.0 | 0.00 | 0.00 | 0.00 | 100 | |
| 20260502225050 | 71 | 292 | 0.0 | 0.0 | 0.00 | 0.00 | 0.00 | 100 | |
| 20260502224049 | 71 | 292 | 0.0 | 0.0 | 0.00 | 0.00 | 0.00 | 100 | |
| 20260502222048 | 71 | 292 | 0.0 | 0.0 | 0.00 | 0.00 | 0.00 | 100 | |
| 20260502213046 | 70 | 292 | 0.0 | 0.0 | 0.00 | 0.00 | 0.00 | 100 | |
| 20260502212051 | 69 | 292 | 0.0 | 0.0 | 0.00 | 0.00 | 0.00 | 100 | |
| 20260502203047 | 67 | 292 | 0.0 | 0.0 | 0.00 | 0.00 | 0.00 | 100 | |
| 20260502202109 | 65 | 292 | 0.0 | 0.0 | 0.00 | 0.00 | 0.00 | 100 | |
| 20260502201048 | 64 | 292 | 0.0 | 0.0 | 0.00 | 0.00 | 0.00 | 100 | |
| 20260502195046 | 65 | 292 | 0.0 | 0.0 | 0.00 | 0.00 | 0.00 | 100 | |
| 20260502194044 | 64 | 292 | 0.0 | 0.0 | 0.00 | 0.00 | 0.00 | 100 |